Edinburg, TX

1:39 PM CST on November 18, 2017 (GMT -0600)
Edinburg

Weather History for KEBG - February, 2013

Change the Weather History Date:

Friday, February 22, 2013

  Actual Average (KMFE) Record (KMFE)
Temperature  
Mean Temperature 73 °F -  
Max Temperature 79 °F 74 °F 98 °F (2017)
Min Temperature 67 °F 54 °F 33 °F (1978)
Cooling Degree Days 8    
Growing Degree Days 23 (Base 50)    
Moisture  
Dew Point 54 °F    
Average Humidity 54    
Maximum Humidity 67    
Minimum Humidity 44    
Precipitation  
Precipitation 0.11 in - - ()
Sea Level Pressure  
Sea Level Pressure 29.83 in    
Wind  
Wind Speed 8 mph (NNE)    
Max Wind Speed 15 mph    
Max Gust Speed 18 mph    
Visibility 7 miles    
Events      
Averages and records for this station are not official NWS values.
T = Trace of Precipitation, MM = Missing Value Source: NWS Daily Summary

Daily Weather History Graph

Daily Weather History Graph

Search for Another Location

Airport or City:

Trip Planner

Search our weather history database for the weather conditions in past years. The results will help you decide how hot, cold, wet, or windy it might be!

Date:

Astronomy

Feb. 22, 2013 Rise Set
Actual Time 7:02 AM CST 6:29 PM CST
Civil Twilight 6:38 AM CST 6:53 PM CST
Nautical Twilight 6:11 AM CST 7:20 PM CST
Astronomical Twilight 5:45 AM CST 7:47 PM CST
Moon 3:52 PM CST (2/22) 4:36 AM CST (2/22)
Length of Visible Light 12h 14m
Length of Day
11h 27m
Waxing Gibbous, 90% of the Moon is Illuminated
Feb 22
Waxing Gibbous
Feb 25
Full
Mar 4
Last Quarter
Mar 11
New
Mar 19
First Quarter

Hourly Weather History & Observations

Time (CST) Temp. Dew Point Humidity Pressure Visibility Wind Dir Wind Speed Gust Speed Precip Events Conditions
12:15 AM 72.1 °F 50.0 °F 46% 29.82 in 7.0 mi NE 5.8 mph - N/A   Mostly Cloudy
12:55 AM 72.7 °F 50.7 °F 46% 29.82 in 7.0 mi NNE 4.6 mph - N/A   Overcast
1:15 AM 72.9 °F 51.1 °F 46% 29.82 in 10.0 mi NE 4.6 mph - N/A   Overcast
1:35 AM 71.8 °F 51.3 °F 48% 29.81 in 7.0 mi NNE 5.8 mph - N/A   Scattered Clouds
1:55 AM 71.2 °F 51.4 °F 50% 29.80 in 7.0 mi NNE 5.8 mph - N/A   Clear
2:15 AM 70.2 °F 51.8 °F 52% 29.80 in 7.0 mi North 4.6 mph - N/A   Clear
2:35 AM 69.3 °F 50.2 °F 51% 29.79 in 7.0 mi North 6.9 mph - N/A   Clear
2:55 AM 68.4 °F 49.8 °F 51% 29.79 in 7.0 mi NNW 6.9 mph - N/A   Clear
3:15 AM 68.0 °F 49.3 °F 51% 29.78 in 7.0 mi North 8.1 mph - N/A   Clear
3:35 AM 67.5 °F 49.3 °F 52% 29.78 in 7.0 mi NNW 6.9 mph - N/A   Clear
3:55 AM 67.3 °F 49.5 °F 53% 29.78 in 7.0 mi North 5.8 mph - N/A   Scattered Clouds
4:15 AM 68.0 °F 49.8 °F 52% 29.78 in 10.0 mi North 5.8 mph - N/A   Overcast
4:35 AM 68.2 °F 50.0 °F 52% 29.78 in 10.0 mi North 6.9 mph - N/A   Overcast
4:55 AM 68.2 °F 50.2 °F 53% 29.78 in 7.0 mi North 8.1 mph - N/A   Overcast
5:15 AM 68.0 °F 50.4 °F 53% 29.79 in 7.0 mi North 8.1 mph - N/A   Overcast
5:35 AM 67.6 °F 50.5 °F 54% 29.80 in 7.0 mi North 8.1 mph - N/A   Overcast
5:55 AM 67.6 °F 50.9 °F 55% 29.80 in 10.0 mi North 8.1 mph - N/A   Overcast
6:15 AM 67.5 °F 51.3 °F 56% 29.80 in 7.0 mi North 8.1 mph - N/A   Overcast
6:35 AM 68.0 °F 52.2 °F 57% 29.81 in 10.0 mi North 6.9 mph - N/A   Overcast
6:55 AM 68.2 °F 53.6 °F 60% 29.81 in 7.0 mi North 6.9 mph - N/A   Overcast
7:15 AM 68.4 °F 54.0 °F 60% 29.82 in 10.0 mi NNE 8.1 mph - N/A   Overcast
7:35 AM 68.4 °F 53.6 °F 59% 29.83 in 7.0 mi North 6.9 mph - N/A   Overcast
7:55 AM 68.9 °F 54.1 °F 59% 29.84 in 7.0 mi North 8.1 mph - 0.11 in   Overcast
8:15 AM 69.3 °F 55.4 °F 61% 29.85 in 7.0 mi NNE 8.1 mph - N/A   Overcast
8:35 AM 69.8 °F 56.1 °F 62% 29.87 in 7.0 mi North 9.2 mph - N/A   Overcast
8:55 AM 70.0 °F 56.5 °F 62% 29.88 in 7.0 mi North 8.1 mph - N/A   Overcast
9:15 AM 70.7 °F 56.3 °F 60% 29.87 in 4.0 mi North 9.2 mph - N/A   Haze
9:35 AM 71.2 °F 57.2 °F 61% 29.88 in 7.0 mi NNE 11.5 mph - N/A   Overcast
9:55 AM 71.6 °F 56.7 °F 59% 29.90 in 7.0 mi NNW 11.5 mph - N/A   Overcast
10:35 AM 72.1 °F 58.1 °F 61% 29.89 in 5.0 mi NNE 11.5 mph - N/A   Haze
10:55 AM 73.6 °F 59.4 °F 61% 29.89 in 5.0 mi NNE 12.7 mph - N/A   Haze
11:15 AM 74.7 °F 59.2 °F 58% 29.88 in 5.0 mi NNE 11.5 mph - N/A   Haze
11:35 AM 75.4 °F 58.5 °F 56% 29.88 in 5.0 mi NE 11.5 mph - N/A   Haze
12:15 PM 75.7 °F 57.2 °F 52% 29.88 in 5.0 mi NNE 10.4 mph - N/A   Haze
12:35 PM 76.6 °F 55.8 °F 48% 29.87 in 7.0 mi North 12.7 mph - N/A   Overcast
12:55 PM 78.1 °F 56.3 °F 47% 29.85 in 5.0 mi NE 11.5 mph - N/A   Haze
1:35 PM 78.6 °F 57.0 °F 47% 29.83 in 7.0 mi NE 10.4 mph - N/A   Mostly Cloudy
1:55 PM 79.2 °F 57.4 °F 47% 29.82 in 7.0 mi NE 12.7 mph 17.3 mph N/A   Mostly Cloudy
2:15 PM 78.4 °F 56.3 °F 46% 29.81 in 5.0 mi NE 12.7 mph 16.1 mph N/A   Haze
2:35 PM 78.3 °F 54.9 °F 44% 29.80 in 5.0 mi NNE 12.7 mph 18.4 mph N/A   Haze
2:55 PM 77.5 °F 55.6 °F 47% 29.80 in 5.0 mi NE 11.5 mph - N/A   Haze
3:15 PM 77.4 °F 54.5 °F 45% 29.80 in 7.0 mi NNE 13.8 mph - N/A   Overcast
3:35 PM 76.6 °F 53.8 °F 45% 29.80 in 7.0 mi NE 15.0 mph - N/A   Overcast
3:55 PM 76.8 °F 53.6 °F 44% 29.80 in 7.0 mi NE 12.7 mph - N/A   Overcast
4:15 PM 75.6 °F 54.0 °F 47% 29.80 in 5.0 mi ENE 13.8 mph - N/A   Haze
4:35 PM 74.8 °F 53.2 °F 47% 29.81 in 5.0 mi NE 12.7 mph - N/A   Haze
4:55 PM 74.7 °F 54.0 °F 48% 29.81 in 5.0 mi NE 13.8 mph 17.3 mph N/A   Haze
5:35 PM 73.6 °F 55.2 °F 53% 29.82 in 7.0 mi ENE 13.8 mph - N/A   Overcast
5:55 PM 72.9 °F 54.7 °F 53% 29.82 in 5.0 mi NE 10.4 mph - N/A   Haze
6:15 PM 71.6 °F 54.3 °F 54% 29.83 in 7.0 mi ENE 11.5 mph - N/A   Scattered Clouds
6:55 PM 70.7 °F 54.1 °F 56% 29.85 in 5.0 mi ENE 11.5 mph - N/A   Haze
10:55 PM 68.2 °F 56.3 °F 66% 29.90 in 7.0 mi NNE 11.5 mph - N/A   Overcast
11:15 PM 67.8 °F 56.7 °F 67% 29.90 in 7.0 mi NNE 12.7 mph - N/A   Overcast
11:35 PM 67.5 °F 55.9 °F 66% 29.91 in 7.0 mi NNE 11.5 mph - N/A   Overcast
11:55 PM 67.3 °F 55.2 °F 65% 29.91 in 7.0 mi NE 12.7 mph 18.4 mph N/A   Overcast